Weather History for Paducah, KY

Change the Weather History Date:

Thursday, January 24, 2013

  Actual Average Record
Temperature  
Mean Temperature 28 °F 35 °F  
Max Temperature 34 °F 44 °F 73 °F (1950)
Min Temperature 21 °F 26 °F -11 °F (1963)
Degree Days  
Heating Degree Days 37 30  
Month to date heating degree days 697 737  
Since 1 July heating degree days 2224 2368  
Cooling Degree Days 0 0  
Month to date cooling degree days 0 0  
Year to date cooling degree days 0 0  
Moisture  
Dew Point 12 °F    
Average Humidity 56    
Maximum Humidity 75    
Minimum Humidity 36    
Precipitation  
Precipitation 0.00 in 0.12 in 1.14 in (1941)
Month to date precipitation 6.44 2.83  
Year to date precipitation 6.44 2.83  
Snow  
Snow 0.00 in 0.10 in 1.30 in (1956)
Month to date snowfall 0.3 2.2  
Since 1 July snowfall 6.0 4.5  
Snow Depth 0.00 in    
Sea Level Pressure  
Sea Level Pressure 30.42 in    
Wind  
Wind Speed 13 mph (ENE)    
Max Wind Speed 22 mph    
Max Gust Speed 29 mph    
Visibility 10 miles    
Events      
T = Trace of Precipitation, MM = Missing Value Source: NWS Daily Summary

Daily Weather History Graph

Daily Weather History Graph

Search for Another Location

Airport:

Trip Planner

Search our weather history database for the weather conditions in past years. The results will help you decide how hot, cold, wet, or windy it might be!

Date:

Astronomy

Jan. 24, 2013 Rise Set
Actual Time 7:03 AM CST 5:11 PM CST
Civil Twilight 6:35 AM CST 5:39 PM CST
Nautical Twilight 6:03 AM CST 6:11 PM CST
Astronomical Twilight 5:33 AM CST 6:41 PM CST
Moon 3:14 PM CST (1/24) 4:59 AM CST (1/24)
Length of Visible Light 11h 04m
Length of Day
10h 08m
Waxing Gibbous, 94% of the Moon is Illuminated
Jan 24
Waxing Gibbous
Jan 26
Full
Feb 3
Last Quarter
Feb 10
New
Feb 17
First Quarter

Hourly Weather History & Observations

Time (CST) Temp. Windchill Dew Point Humidity Pressure Visibility Wind Dir Wind Speed Gust Speed Precip Events Conditions
12:53 AM 32.0 °F 24.2 °F 23.0 °F 69% 30.29 in 10.0 mi North 9.2 mph - N/A   Clear
1:53 AM 32.0 °F 21.6 °F 19.0 °F 59% 30.31 in 10.0 mi North 15.0 mph 21.9 mph N/A   Clear
2:53 AM 30.0 °F 20.0 °F 19.0 °F 64% 30.35 in 10.0 mi North 12.7 mph - N/A   Clear
3:53 AM 28.0 °F 15.3 °F 17.1 °F 63% 30.37 in 10.0 mi NNE 18.4 mph 26.5 mph N/A   Clear
4:53 AM 26.1 °F 14.0 °F 16.0 °F 66% 30.40 in 10.0 mi NNE 15.0 mph - N/A   Clear
5:53 AM 24.1 °F 10.6 °F 14.0 °F 65% 30.45 in 10.0 mi NNE 17.3 mph - N/A   Clear
6:53 AM 21.9 °F 8.2 °F 10.9 °F 63% 30.49 in 10.0 mi NNE 16.1 mph 21.9 mph N/A   Clear
7:53 AM 21.9 °F 7.8 °F 10.0 °F 60% 30.51 in 10.0 mi NNE 17.3 mph - N/A   Clear
8:53 AM 23.0 °F 10.1 °F 9.0 °F 55% 30.53 in 10.0 mi NE 15.0 mph - N/A   Clear
9:53 AM 25.0 °F 12.6 °F 8.1 °F 49% 30.56 in 10.0 mi NE 15.0 mph - N/A   Clear
10:53 AM 28.0 °F 16.1 °F 10.0 °F 47% 30.56 in 10.0 mi ENE 16.1 mph - N/A   Clear
11:53 AM 28.9 °F 19.2 °F 10.9 °F 47% 30.53 in 10.0 mi ENE 11.5 mph 19.6 mph N/A   Clear
12:53 PM 30.9 °F 21.7 °F 12.0 °F 46% 30.49 in 10.0 mi East 11.5 mph - N/A   Clear
1:53 PM 32.0 °F 23.0 °F 12.9 °F 45% 30.47 in 10.0 mi East 11.5 mph - N/A   Clear
2:53 PM 32.0 °F 22.1 °F 12.0 °F 44% 30.45 in 10.0 mi East 13.8 mph - N/A   Clear
3:53 PM 33.1 °F 23.4 °F 10.9 °F 40% 30.41 in 10.0 mi ENE 13.8 mph - N/A   Clear
4:53 PM 30.0 °F 21.1 °F 12.0 °F 47% 30.42 in 10.0 mi East 10.4 mph - N/A   Clear
5:53 PM 28.9 °F 21.9 °F 12.0 °F 49% 30.42 in 10.0 mi ENE 6.9 mph - N/A   Partly Cloudy
6:53 PM 30.0 °F 21.7 °F 10.0 °F 43% 30.40 in 10.0 mi East 9.2 mph - N/A   Overcast
7:53 PM 30.9 °F 22.2 °F 10.9 °F 43% 30.38 in 10.0 mi East 10.4 mph - N/A   Overcast
8:53 PM 30.9 °F 21.7 °F 8.1 °F 38% 30.36 in 10.0 mi ESE 11.5 mph - N/A   Overcast
9:53 PM 30.9 °F 22.2 °F 7.0 °F 37% 30.34 in 10.0 mi East 10.4 mph - N/A   Overcast
10:53 PM 30.9 °F 25.2 °F 9.0 °F 40% 30.32 in 10.0 mi East 5.8 mph - N/A   Overcast
11:53 PM 30.9 °F 22.2 °F 7.0 °F 37% 30.27 in 10.0 mi East 10.4 mph - N/A   Overcast